QPF
0.00 0.01 0.01 0.01 0.01 0.01 0.01 0.01 0.01 0.01 0.00 0.00 0.01 0.01 0.01 0.02 0.03 0.03 0.03 0.02 0.02 0.02 0.01 0.00 0.00 0.01 0.01 0.01 0.02 0.03 0.05 0.08 0.06 0.05 0.06 0.08 0.07 0.04 0.03 0.02 0.02 0.02 0.01
0.00 0.00 0.00 0.00 0.00 0.00 0.01 0.01 0.00 0.00 0.00 0.00 0.00 0.00 0.01 0.01 0.01 0.02 0.02 0.02 0.03 0.03 0.02 0.01 0.00 0.01 0.01 0.01 0.01 0.02 0.05 0.07 0.07 0.06 0.05 0.06 0.07 0.05 0.03 0.02 0.02 0.03 0.02
0.00 0.00 0.00 0.00 0.00 0.00 0.00 0.00 0.00 0.00 0.00 0.00 0.00 0.00 0.00 0.01 0.01 0.01 0.02 0.02 0.02 0.02 0.02 0.02 0.01 0.01 0.01 0.01 0.01 0.03 0.05 0.07 0.07 0.07 0.06 0.07 0.07 0.05 0.05 0.04 0.03 0.03 0.03
0.00 0.00 0.00 0.00 0.00 0.00 0.00 0.00 0.00 0.00 0.00 0.00 0.00 0.00 0.00 0.00 0.01 0.01 0.02 0.02 0.02 0.02 0.02 0.02 0.01 0.01 0.01 0.01 0.01 0.03 0.04 0.05 0.05 0.06 0.06 0.07 0.06 0.06 0.05 0.04 0.05 0.05 0.05
0.00 0.00 0.00 0.00 0.00 0.00 0.00 0.00 0.00 0.00 0.00 0.00 0.00 0.00 0.00 0.00 0.01 0.01 0.02 0.02 0.03 0.03 0.03 0.02 0.01 0.01 0.01 0.01 0.01 0.02 0.03 0.03 0.04 0.05 0.05 0.06 0.07 0.07 0.06 0.05 0.04 0.05 0.05
0.00 0.00 0.00 0.00 0.00 0.00 0.00 0.00 0.00 0.01 0.01 0.01 0.00 0.00 0.00 0.00 0.00 0.01 0.01 0.02 0.03 0.04 0.03 0.03 0.02 0.01 0.01 0.01 0.01 0.02 0.04 0.03 0.03 0.05 0.05 0.05 0.07 0.06 0.05 0.05 0.04 0.04 0.05
0.00 0.00 0.00 0.00 0.00 0.00 0.00 0.00 0.01 0.01 0.01 0.01 0.01 0.01 0.00 0.00 0.00 0.00 0.01 0.02 0.03 0.03 0.04 0.04 0.03 0.01 0.01 0.01 0.01 0.01 0.02 0.03 0.04 0.05 0.06 0.04 0.05 0.05 0.05 0.04 0.04 0.04 0.04
0.00 0.00 0.00 0.00 0.00 0.00 0.00 0.01 0.01 0.01 0.00 0.00 0.01 0.01 0.00 0.00 0.01 0.01 0.02 0.02 0.03 0.03 0.04 0.04 0.04 0.03 0.02 0.02 0.02 0.01 0.01 0.01 0.02 0.03 0.05 0.04 0.03 0.03 0.04 0.04 0.04 0.05 0.05
0.00 0.00 0.00 0.00 0.01 0.01 0.00 0.01 0.01 0.01 0.00 0.00 0.01 0.01 0.01 0.00 0.01 0.02 0.04 0.04 0.05 0.05 0.05 0.05 0.05 0.03 0.03 0.03 0.03 0.02 0.01 0.02 0.03 0.05 0.04 0.05 0.04 0.04 0.03 0.04 0.05 0.05 0.05
0.01 0.01 0.01 0.01 0.01 0.01 0.01 0.01 0.01 0.01 0.00 0.01 0.01 0.02 0.01 0.01 0.01 0.02 0.05 0.06 0.09 0.09 0.08 0.07 0.06 0.05 0.04 0.04 0.04 0.03 0.03 0.03 0.03 0.04 0.04 0.04 0.03 0.03 0.03 0.02 0.03 0.04 0.03
0.01 0.01 0.01 0.01 0.01 0.01 0.01 0.01 0.01 0.01 0.01 0.01 0.01 0.02 0.02 0.01 0.01 0.02 0.06 0.09 0.13 0.15 0.14 0.10 0.07 0.06 0.05 0.05 0.05 0.04 0.04 0.03 0.03 0.03 0.03 0.03 0.03 0.03 0.02 0.01 0.02 0.02 0.02
0.01 0.01 0.01 0.01 0.01 0.01 0.02 0.02 0.02 0.01 0.01 0.01 0.01 0.02 0.02 0.01 0.01 0.02 0.07 0.12 0.18 0.21 0.20 0.15 0.11 0.09 0.07 0.07 0.07 0.07 0.07 0.04 0.03 0.02 0.02 0.02 0.02 0.02 0.01 0.01 0.01 0.01 0.00
0.02 0.01 0.01 0.01 0.01 0.02 0.02 0.01 0.02 0.02 0.02 0.01 0.02 0.02 0.04 0.03 0.02 0.03 0.08 0.15 0.23 0.27 0.26 0.23 0.18 0.15 0.10 0.08 0.09 0.09 0.06 0.03 0.02 0.02 0.02 0.02 0.01 0.01 0.00 0.00 0.00 0.00 0.00
0.03 0.02 0.02 0.02 0.01 0.02 0.02 0.02 0.02 0.02 0.02 0.02 0.02 0.03 0.05 0.05 0.04 0.05 0.10 0.20 0.31 0.34 0.33 0.31 0.24 0.19 0.14 0.11 0.11 0.09 0.05 0.04 0.03 0.01 0.01 0.01 0.01 0.00 0.00 0.00 0.00 0.00 0.00
0.04 0.03 0.02 0.02 0.02 0.02 0.02 0.02 0.02 0.02 0.02 0.02 0.02 0.03 0.04 0.05 0.05 0.09 0.16 0.27 0.38 0.42 0.41 0.37 0.29 0.19 0.14 0.11 0.10 0.07 0.05 0.05 0.03 0.01 0.01 0.01 0.00 0.00 0.00 0.00 0.00 0.00 0.00
0.06 0.05 0.05 0.05 0.04 0.03 0.03 0.02 0.01 0.01 0.01 0.00 0.00 0.01 0.02 0.02 0.04 0.09 0.18 0.32 0.40 0.47 0.47 0.38 0.30 0.18 0.11 0.10 0.09 0.07 0.05 0.03 0.02 0.01 0.01 0.00 0.00 0.00 0.00 0.00 0.00 0.00 0.00
0.07 0.07 0.06 0.06 0.06 0.05 0.04 0.03 0.02 0.02 0.01 0.00 0.00 0.00 0.00 0.01 0.05 0.10 0.21 0.32 0.41 0.45 0.41 0.34 0.23 0.16 0.10 0.08 0.07 0.05 0.03 0.02 0.01 0.01 0.01 0.01 0.00 0.00 0.00 0.00 0.00 0.00 0.00
0.07 0.06 0.05 0.06 0.07 0.06 0.04 0.03 0.03 0.03 0.02 0.02 0.00 0.00 0.00 0.01 0.05 0.11 0.20 0.30 0.42 0.42 0.35 0.29 0.20 0.13 0.09 0.07 0.05 0.04 0.02 0.01 0.00 0.00 0.00 0.00 0.00 0.00 0.00 0.00 0.00 0.00 0.00
0.06 0.05 0.05 0.05 0.05 0.04 0.03 0.03 0.02 0.02 0.03 0.03 0.01 0.00 0.01 0.02 0.05 0.09 0.14 0.23 0.34 0.32 0.27 0.22 0.16 0.11 0.06 0.05 0.03 0.02 0.01 0.00 0.00 0.00 0.00 0.00 0.00 0.00 0.00 0.00 0.00 0.00 0.00
0.06 0.06 0.05 0.03 0.03 0.03 0.02 0.02 0.02 0.02 0.02 0.02 0.02 0.01 0.01 0.02 0.04 0.06 0.10 0.17 0.23 0.22 0.18 0.14 0.12 0.07 0.03 0.02 0.01 0.01 0.01 0.00 0.00 0.00 0.00 0.00 0.00 0.00 0.00 0.00 0.00 0.00 0.00
0.05 0.04 0.04 0.03 0.03 0.03 0.02 0.02 0.02 0.02 0.02 0.02 0.02 0.02 0.02 0.01 0.03 0.05 0.07 0.09 0.13 0.13 0.11 0.08 0.06 0.03 0.01 0.01 0.00 0.00 0.00 0.00 0.00 0.00 0.00 0.00 0.00 0.00 0.00 0.00 0.00 0.00 0.00
0.05 0.05 0.05 0.04 0.03 0.03 0.02 0.02 0.02 0.02 0.02 0.02 0.02 0.02 0.01 0.01 0.02 0.03 0.03 0.04 0.06 0.08 0.06 0.03 0.03 0.01 0.00 0.00 0.00 0.00 0.00 0.00 0.00 0.00 0.00 0.00 0.00 0.00 0.00 0.00 0.00 0.00 0.00
0.06 0.05 0.05 0.04 0.04 0.04 0.03 0.03 0.03 0.02 0.02 0.02 0.02 0.01 0.00 0.01 0.01 0.01 0.01 0.02 0.04 0.04 0.02 0.02 0.01 0.01 0.00 0.00 0.00 0.00 0.00 0.00 0.00 0.00 0.00 0.00 0.00 0.00 0.00 0.00 0.00 0.00 0.00
0.06 0.07 0.05 0.04 0.03 0.03 0.03 0.03 0.03 0.02 0.02 0.02 0.01 0.01 0.00 0.01 0.01 0.00 0.01 0.01 0.02 0.02 0.02 0.02 0.01 0.00 0.00 0.00 0.00 0.00 0.00 0.00 0.00 0.00 0.00 0.00 0.00 0.00 0.00 0.00 0.00 0.00 0.00
0.08 0.09 0.08 0.06 0.04 0.03 0.03 0.03 0.02 0.02 0.02 0.02 0.01 0.00 0.00 0.00 0.00 0.00 0.01 0.01 0.01 0.01 0.01 0.01 0.00 0.00 0.00 0.00 0.00 0.00 0.00 0.00 0.00 0.00 0.00 0.00 0.00 0.00 0.00 0.00 0.00 0.00 0.00
0.10 0.10 0.09 0.08 0.06 0.04 0.03 0.03 0.02 0.02 0.01 0.01 0.00 0.00 0.00 0.00 0.00 0.00 0.00 0.00 0.00 0.00 0.00 0.00 0.00 0.00 0.00 0.00 0.00 0.00 0.00 0.00 0.00 0.00 0.00 0.00 0.00 0.00 0.00 0.00 0.00 0.00 0.00
MSLP
1011.96 1011.91 1011.89 1011.88 1011.85 1011.79 1011.69 1011.54 1011.35 1011.13 1010.90 1010.65 1010.41 1010.18 1009.95 1009.72 1009.49 1009.26 1009.02 1008.77 1008.52 1008.26 1008.00 1007.75 1007.51 1007.30 1007.14 1007.05 1007.03 1007.11 1007.29 1007.56 1007.91 1008.31 1008.74 1009.15 1009.52 1009.83 1010.08 1010.25 1010.37 1010.45 1010.50
1011.42 1011.33 1011.28 1011.25 1011.23 1011.18 1011.11 1011.01 1010.87 1010.70 1010.52 1010.32 1010.11 1009.90 1009.68 1009.46 1009.23 1008.99 1008.73 1008.45 1008.15 1007.83 1007.50 1007.15 1006.82 1006.52 1006.28 1006.12 1006.08 1006.16 1006.38 1006.73 1007.18 1007.70 1008.26 1008.82 1009.33 1009.78 1010.15 1010.44 1010.65 1010.82 1010.94
1010.64 1010.51 1010.43 1010.38 1010.34 1010.31 1010.26 1010.20 1010.11 1010.00 1009.88 1009.74 1009.59 1009.42 1009.25 1009.06 1008.85 1008.61 1008.35 1008.06 1007.73 1007.36 1006.97 1006.56 1006.16 1005.79 1005.49 1005.29 1005.22 1005.31 1005.55 1005.95 1006.48 1007.10 1007.76 1008.43 1009.07 1009.63 1010.11 1010.51 1010.83 1011.10 1011.31
1009.68 1009.53 1009.42 1009.34 1009.29 1009.24 1009.21 1009.17 1009.13 1009.09 1009.03 1008.96 1008.87 1008.77 1008.65 1008.50 1008.32 1008.11 1007.85 1007.56 1007.21 1006.83 1006.40 1005.96 1005.52 1005.11 1004.78 1004.56 1004.48 1004.57 1004.84 1005.26 1005.84 1006.51 1007.25 1008.00 1008.72 1009.38 1009.96 1010.46 1010.88 1011.25 1011.57
1008.65 1008.47 1008.33 1008.23 1008.15 1008.10 1008.06 1008.05 1008.04 1008.05 1008.05 1008.05 1008.03 1007.98 1007.91 1007.80 1007.66 1007.46 1007.22 1006.93 1006.59 1006.19 1005.77 1005.32 1004.88 1004.47 1004.14 1003.93 1003.86 1003.96 1004.23 1004.68 1005.27 1005.96 1006.73 1007.52 1008.30 1009.02 1009.68 1010.27 1010.79 1011.27 1011.69
1007.66 1007.46 1007.30 1007.16 1007.05 1006.97 1006.93 1006.93 1006.95 1006.99 1007.04 1007.09 1007.12 1007.12 1007.09 1007.01 1006.88 1006.70 1006.46 1006.17 1005.84 1005.46 1005.05 1004.62 1004.21 1003.84 1003.55 1003.37 1003.33 1003.45 1003.73 1004.18 1004.76 1005.46 1006.23 1007.03 1007.82 1008.58 1009.30 1009.96 1010.57 1011.14 1011.67
1006.81 1006.59 1006.39 1006.22 1006.07 1005.97 1005.91 1005.90 1005.93 1006.00 1006.08 1006.16 1006.22 1006.25 1006.23 1006.16 1006.02 1005.84 1005.59 1005.30 1004.98 1004.62 1004.24 1003.87 1003.52 1003.22 1002.99 1002.86 1002.87 1003.02 1003.31 1003.76 1004.33 1005.01 1005.76 1006.54 1007.34 1008.11 1008.86 1009.57 1010.25 1010.91 1011.53
1006.15 1005.90 1005.67 1005.45 1005.27 1005.13 1005.05 1005.03 1005.06 1005.13 1005.22 1005.31 1005.38 1005.40 1005.37 1005.28 1005.12 1004.91 1004.65 1004.36 1004.04 1003.71 1003.38 1003.07 1002.80 1002.58 1002.44 1002.40 1002.47 1002.66 1002.98 1003.43 1003.99 1004.64 1005.36 1006.12 1006.89 1007.67 1008.43 1009.17 1009.90 1010.61 1011.31
1005.65 1005.37 1005.10 1004.84 1004.62 1004.46 1004.35 1004.31 1004.32 1004.38 1004.46 1004.54 1004.59 1004.59 1004.53 1004.40 1004.21 1003.97 1003.68 1003.38 1003.07 1002.77 1002.50 1002.27 1002.09 1001.98 1001.93 1001.98 1002.13 1002.39 1002.75 1003.21 1003.76 1004.39 1005.08 1005.81 1006.56 1007.32 1008.08 1008.83 1009.58 1010.33 1011.07
1005.25 1004.93 1004.62 1004.33 1004.08 1003.88 1003.75 1003.69 1003.68 1003.73 1003.79 1003.84 1003.86 1003.82 1003.72 1003.55 1003.32 1003.04 1002.73 1002.42 1002.13 1001.87 1001.66 1001.51 1001.43 1001.42 1001.49 1001.64 1001.88 1002.21 1002.62 1003.11 1003.68 1004.30 1004.97 1005.67 1006.39 1007.13 1007.87 1008.62 1009.36 1010.11 1010.86
1004.85 1004.49 1004.14 1003.82 1003.54 1003.32 1003.18 1003.10 1003.08 1003.10 1003.14 1003.17 1003.15 1003.08 1002.94 1002.73 1002.46 1002.16 1001.84 1001.53 1001.26 1001.05 1000.91 1000.84 1000.86 1000.96 1001.14 1001.40 1001.74 1002.15 1002.62 1003.15 1003.74 1004.37 1005.04 1005.72 1006.43 1007.13 1007.85 1008.56 1009.28 1010.00 1010.72
1004.38 1003.97 1003.59 1003.24 1002.95 1002.72 1002.56 1002.48 1002.45 1002.46 1002.48 1002.49 1002.45 1002.35 1002.18 1001.95 1001.67 1001.36 1001.05 1000.76 1000.53 1000.37 1000.29 1000.31 1000.42 1000.62 1000.91 1001.27 1001.70 1002.20 1002.74 1003.33 1003.96 1004.61 1005.28 1005.97 1006.65 1007.33 1008.01 1008.69 1009.35 1010.02 1010.69
1003.77 1003.33 1002.92 1002.56 1002.26 1002.03 1001.88 1001.79 1001.77 1001.77 1001.79 1001.79 1001.74 1001.63 1001.46 1001.23 1000.96 1000.67 1000.38 1000.13 999.95 999.85 999.84 999.94 1000.14 1000.43 1000.81 1001.26 1001.78 1002.35 1002.97 1003.61 1004.29 1004.97 1005.67 1006.35 1007.03 1007.69 1008.33 1008.95 1009.56 1010.16 1010.75
1003.03 1002.56 1002.13 1001.77 1001.48 1001.26 1001.12 1001.05 1001.03 1001.05 1001.07 1001.08 1001.04 1000.95 1000.80 1000.59 1000.36 1000.10 999.87 999.67 999.55 999.51 999.57 999.73 1000.00 1000.37 1000.82 1001.35 1001.93 1002.57 1003.25 1003.96 1004.68 1005.40 1006.12 1006.82 1007.49 1008.13 1008.74 1009.31 1009.86 1010.38 1010.89
1002.21 1001.72 1001.29 1000.93 1000.65 1000.46 1000.34 1000.29 1000.30 1000.33 1000.37 1000.40 1000.39 1000.33 1000.22 1000.07 999.88 999.69 999.52 999.39 999.32 999.34 999.46 999.68 1000.00 1000.42 1000.92 1001.50 1002.14 1002.82 1003.55 1004.30 1005.05 1005.81 1006.55 1007.27 1007.95 1008.58 1009.16 1009.70 1010.19 1010.65 1011.09
1001.40 1000.89 1000.47 1000.12 999.87 999.70 999.61 999.59 999.62 999.68 999.75 999.81 999.84 999.83 999.78 999.69 999.57 999.44 999.34 999.27 999.26 999.34 999.50 999.76 1000.11 1000.55 1001.08 1001.68 1002.34 1003.05 1003.80 1004.58 1005.36 1006.14 1006.91 1007.64 1008.32 1008.95 1009.53 1010.04 1010.51 1010.93 1011.32
1000.66 1000.16 999.74 999.42 999.19 999.05 998.99 999.00 999.07 999.16 999.27 999.37 999.44 999.49 999.49 999.46 999.41 999.36 999.31 999.30 999.35 999.46 999.64 999.92 1000.28 1000.73 1001.25 1001.85 1002.52 1003.23 1003.99 1004.77 1005.56 1006.35 1007.13 1007.87 1008.56 1009.21 1009.79 1010.30 1010.76 1011.17 1011.54
1000.04 999.56 999.16 998.86 998.66 998.56 998.53 998.57 998.67 998.80 998.95 999.09 999.22 999.31 999.38 999.41 999.42 999.42 999.43 999.46 999.53 999.66 999.86 1000.13 1000.49 1000.92 1001.43 1002.01 1002.65 1003.35 1004.09 1004.86 1005.64 1006.43 1007.21 1007.96 1008.66 1009.32 1009.91 1010.45 1010.92 1011.35 1011.74
999.56 999.09 998.72 998.45 998.28 998.21 998.22 998.30 998.43 998.60 998.79 998.98 999.15 999.30 999.41 999.50 999.56 999.60 999.64 999.70 999.79 999.92 1000.12 1000.37 1000.70 1001.11 1001.58 1002.13 1002.74 1003.41 1004.12 1004.86 1005.63 1006.40 1007.17 1007.91 1008.63 1009.29 1009.91 1010.48 1010.99 1011.45 1011.87
999.19 998.74 998.39 998.15 998.01 997.97 998.02 998.14 998.31 998.52 998.76 998.99 999.21 999.40 999.57 999.69 999.79 999.86 999.92 999.99 1000.08 1000.20 1000.38 1000.61 1000.91 1001.27 1001.71 1002.22 1002.80 1003.43 1004.10 1004.81 1005.55 1006.30 1007.05 1007.78 1008.49 1009.17 1009.81 1010.41 1010.95 1011.46 1011.91
998.87 998.44 998.11 997.90 997.79 997.79 997.87 998.03 998.25 998.51 998.79 999.07 999.34 999.58 999.78 999.94 1000.06 1000.15 1000.22 1000.29 1000.36 1000.47 1000.62 1000.82 1001.09 1001.42 1001.83 1002.30 1002.84 1003.43 1004.07 1004.75 1005.45 1006.17 1006.89 1007.61 1008.31 1008.99 1009.63 1010.25 1010.82 1011.36 1011.85
998.56 998.14 997.84 997.65 997.57 997.60 997.72 997.93 998.20 998.50 998.83 999.17 999.48 999.76 999.99 1000.18 1000.32 1000.42 1000.49 1000.55 1000.61 1000.69 1000.82 1000.99 1001.23 1001.54 1001.92 1002.36 1002.87 1003.44 1004.05 1004.69 1005.36 1006.05 1006.74 1007.43 1008.11 1008.77 1009.41 1010.02 1010.60 1011.15 1011.66
998.25 997.84 997.54 997.37 997.32 997.38 997.54 997.79 998.10 998.46 998.84 999.21 999.57 999.88 1000.15 1000.36 1000.52 1000.62 1000.69 1000.74 1000.79 1000.86 1000.96 1001.12 1001.34 1001.63 1001.99 1002.42 1002.91 1003.46 1004.05 1004.67 1005.31 1005.96 1006.61 1007.27 1007.91 1008.54 1009.15 1009.74 1010.30 1010.83 1011.32
997.97 997.55 997.26 997.10 997.07 997.15 997.34 997.62 997.96 998.36 998.78 999.19 999.58 999.93 1000.23 1000.45 1000.62 1000.73 1000.80 1000.85 1000.89 1000.95 1001.05 1001.19 1001.41 1001.69 1002.05 1002.48 1002.96 1003.50 1004.07 1004.67 1005.29 1005.91 1006.52 1007.13 1007.72 1008.30 1008.86 1009.40 1009.92 1010.41 1010.86
997.77 997.35 997.06 996.89 996.86 996.95 997.15 997.45 997.82 998.24 998.68 999.12 999.53 999.90 1000.21 1000.46 1000.64 1000.76 1000.83 1000.88 1000.92 1000.98 1001.08 1001.23 1001.45 1001.74 1002.10 1002.53 1003.02 1003.55 1004.11 1004.70 1005.29 1005.87 1006.45 1007.00 1007.54 1008.06 1008.56 1009.03 1009.48 1009.90 1010.29
997.73 997.30 997.00 996.83 996.79 996.87 997.06 997.35 997.72 998.14 998.58 999.02 999.44 999.82 1000.14 1000.39 1000.58 1000.71 1000.80 1000.85 1000.91 1000.98 1001.09 1001.25 1001.48 1001.78 1002.15 1002.59 1003.08 1003.61 1004.17 1004.73 1005.30 1005.85 1006.38 1006.88 1007.35 1007.80 1008.23 1008.62 1008.99 1009.34 1009.66
Thickness
5619 5617 5615 5614 5613 5612 5611 5612 5613 5615 5618 5621 5625 5628 5633 5638 5644 5650 5656 5662 5666 5671 5674 5678 5681 5684 5686 5688 5688 5687 5686 5683 5679 5677 5676 5674 5672 5671 5669 5669 5668 5669 5670
5601 5596 5593 5592 5590 5590 5591 5592 5594 5597 5600 5603 5606 5610 5616 5622 5628 5633 5640 5648 5654 5660 5665 5669 5674 5678 5680 5683 5684 5684 5683 5682 5678 5674 5671 5668 5666 5664 5663 5661 5660 5660 5661
5583 5577 5573 5570 5568 5568 5569 5572 5574 5577 5581 5585 5588 5592 5598 5604 5611 5618 5625 5633 5641 5648 5655 5660 5666 5670 5674 5677 5679 5679 5679 5679 5677 5673 5668 5664 5661 5658 5656 5653 5651 5651 5651
5568 5562 5558 5556 5554 5553 5553 5553 5555 5558 5561 5565 5570 5575 5581 5587 5594 5602 5610 5618 5627 5636 5645 5652 5658 5663 5668 5671 5673 5674 5675 5673 5672 5669 5664 5660 5656 5653 5650 5646 5643 5643 5642
5558 5553 5550 5548 5546 5545 5543 5543 5543 5544 5547 5550 5553 5557 5563 5569 5578 5586 5594 5603 5613 5623 5633 5642 5650 5656 5662 5665 5668 5669 5669 5668 5667 5665 5661 5657 5653 5648 5645 5641 5638 5634 5632
5552 5549 5547 5544 5542 5541 5540 5539 5538 5538 5539 5539 5541 5544 5548 5554 5562 5570 5578 5587 5598 5608 5619 5630 5639 5648 5654 5659 5663 5665 5666 5665 5664 5662 5658 5655 5651 5646 5641 5638 5633 5631 5626
5547 5545 5543 5541 5539 5538 5538 5537 5536 5535 5535 5535 5536 5537 5539 5542 5547 5554 5562 5571 5582 5594 5606 5617 5628 5638 5645 5650 5656 5659 5661 5662 5664 5662 5657 5654 5649 5645 5640 5634 5629 5627 5625
5541 5539 5537 5536 5535 5534 5533 5532 5532 5531 5531 5531 5532 5534 5535 5537 5540 5544 5549 5557 5567 5580 5592 5604 5616 5627 5635 5641 5646 5649 5652 5654 5657 5657 5655 5652 5648 5643 5639 5633 5627 5622 5618
5532 5530 5529 5528 5527 5526 5525 5525 5525 5525 5526 5526 5528 5530 5530 5532 5535 5538 5541 5545 5554 5566 5579 5592 5605 5616 5625 5632 5637 5640 5643 5645 5648 5649 5648 5646 5642 5638 5634 5628 5621 5618 5611
5520 5519 5519 5518 5517 5517 5518 5518 5519 5519 5520 5522 5524 5525 5526 5528 5531 5533 5535 5538 5545 5555 5568 5581 5594 5605 5614 5622 5629 5633 5635 5637 5639 5639 5638 5636 5633 5631 5629 5625 5621 5616 5609
5507 5506 5506 5506 5506 5507 5509 5510 5511 5513 5514 5516 5518 5521 5522 5525 5527 5529 5530 5532 5538 5547 5557 5570 5583 5594 5604 5612 5621 5627 5630 5631 5632 5632 5629 5627 5625 5623 5621 5619 5618 5616 5610
5494 5494 5494 5494 5496 5500 5500 5502 5504 5506 5507 5510 5512 5515 5518 5521 5523 5525 5526 5529 5533 5540 5551 5562 5574 5583 5593 5602 5610 5616 5620 5623 5624 5623 5621 5618 5616 5615 5614 5613 5612 5611 5610
5482 5482 5483 5484 5486 5488 5490 5493 5496 5499 5501 5505 5507 5510 5513 5516 5519 5521 5523 5526 5529 5535 5546 5556 5566 5574 5584 5593 5599 5605 5611 5615 5616 5615 5613 5610 5609 5609 5608 5606 5604 5603 5603
5473 5473 5474 5475 5477 5480 5483 5487 5490 5494 5497 5500 5504 5507 5510 5512 5514 5516 5518 5521 5525 5532 5540 5549 5557 5566 5576 5584 5590 5597 5603 5607 5609 5608 5605 5603 5602 5601 5600 5601 5598 5597 5594
5467 5467 5467 5469 5471 5474 5478 5482 5487 5491 5495 5498 5502 5505 5507 5509 5513 5515 5516 5518 5522 5528 5535 5543 5551 5560 5569 5576 5582 5589 5594 5598 5599 5599 5598 5596 5594 5593 5591 5592 5592 5592 5590
5464 5464 5464 5465 5467 5470 5473 5478 5484 5488 5493 5497 5501 5504 5508 5510 5511 5512 5513 5515 5518 5524 5531 5541 5549 5558 5567 5573 5578 5583 5587 5590 5591 5592 5591 5589 5588 5587 5585 5585 5586 5587 5584
5464 5463 5463 5464 5465 5468 5471 5475 5480 5485 5491 5495 5499 5502 5505 5506 5507 5507 5509 5511 5516 5522 5531 5539 5548 5555 5563 5569 5574 5579 5581 5584 5585 5585 5585 5583 5583 5582 5582 5580 5580 5580 5578
5467 5466 5466 5466 5467 5469 5472 5476 5479 5484 5488 5491 5495 5500 5501 5502 5503 5504 5506 5509 5515 5521 5531 5540 5547 5554 5561 5567 5571 5575 5577 5578 5579 5580 5580 5579 5579 5579 5578 5577 5577 5577 5575
5472 5470 5470 5470 5472 5473 5475 5478 5482 5486 5489 5491 5492 5494 5496 5498 5499 5501 5506 5512 5519 5525 5532 5540 5547 5553 5559 5565 5569 5572 5573 5574 5576 5576 5576 5576 5577 5577 5576 5575 5576 5576 5575
5480 5480 5479 5477 5477 5478 5480 5482 5486 5489 5491 5494 5494 5495 5495 5497 5499 5502 5507 5514 5520 5528 5534 5541 5547 5553 5558 5563 5566 5569 5570 5572 5573 5574 5575 5575 5576 5576 5576 5575 5575 5575 5574
5489 5487 5488 5484 5483 5484 5486 5488 5490 5493 5495 5498 5499 5499 5499 5502 5504 5507 5511 5517 5524 5531 5536 5543 5549 5554 5559 5563 5566 5568 5570 5571 5573 5574 5575 5575 5575 5575 5576 5575 5575 5575 5574
5498 5496 5494 5492 5491 5492 5492 5494 5496 5498 5501 5502 5502 5502 5502 5507 5509 5513 5518 5523 5529 5535 5541 5547 5552 5557 5562 5566 5568 5569 5570 5572 5573 5574 5575 5575 5576 5576 5576 5575 5574 5573 5572
5508 5506 5504 5502 5500 5501 5501 5502 5503 5504 5506 5507 5508 5508 5509 5513 5516 5520 5526 5530 5536 5542 5547 5552 5556 5561 5565 5569 5571 5573 5574 5574 5576 5578 5577 5576 5576 5576 5576 5575 5573 5571 5570
5519 5516 5514 5512 5511 5510 5510 5510 5511 5512 5513 5513 5514 5515 5517 5521 5524 5528 5532 5538 5543 5548 5553 5558 5562 5566 5570 5572 5574 5576 5578 5579 5580 5580 5580 5579 5577 5576 5575 5574 5573 5572 5570
5531 5528 5525 5522 5520 5519 5519 5519 5519 5520 5521 5521 5522 5523 5525 5529 5532 5536 5540 5545 5550 5555 5559 5563 5567 5571 5574 5576 5577 5579 5581 5581 5582 5582 5581 5580 5578 5577 5575 5574 5572 5570 5568
5544 5541 5538 5534 5530 5529 5528 5527 5527 5528 5529 5530 5531 5533 5535 5537 5540 5544 5548 5553 5557 5562 5566 5570 5573 5576 5578 5580 5581 5582 5581 5582 5582 5582 5582 5580 5578 5576 5574 5572 5571 5569 5567